OVZON-3 (58698 NORAD) Tracking and Keplerian Element Data

This shows tracking and keplerian element data for the satellite.

Feedback or suggestion? Click here.




ElementValue
Catalog58698
NameOVZON-3
Epoch Orbit1
Epoch Day4.2814645
Epoch Year2024
RAAN295.2985
Inclination26.9047
Eccentricity0.7794745
Argument of Perigee180.4102
Mean Anonmoly178.1861
Mean Motion1.65215512
Decay Rate1.417E-05
L11 58698U 24003A 24004.28146450 .00001417 00000+0 16211-2 0 9990
L22 58698 26.9047 295.2985 7794745 180.4102 178.1861 1.65215512 16



Live tracking and technical data element details for OVZON-3 (NORAD 58698). OVZON-3 can be tracked NOW for your location showing map with azimuth and elevation plus other details from your city location.







IsCatalogInMostPopularTable: catalog: 58698, numindb: 23
Update: records affected: 1



GetName: 58698 OVZON-3

Hit Count: updated at: Wed, 17 Apr 2024 03:45:06 GMT